Time,TemperatureF,DewpointF,PressureIn,WindDirection,WindDirectionDegrees,WindSpeedMPH,WindSpeedGustMPH,Humidity,HourlyPrecipIn,Conditions,Clouds,dailyrainin,SoftwareType,DateUTC
2013-03-08 00:01:00,26.0,19.0,-100.00,WNW,286,2.0,2.0,76,0.00,,,0.00,,2013-03-08 07:01:00,
2013-03-08 00:11:00,26.0,19.0,-100.00,WNW,286,2.0,2.0,76,0.00,,,0.00,,2013-03-08 07:11:00,
2013-03-08 00:41:00,20.0,17.0,-100.00,SSW,199,4.0,5.0,86,0.00,,,0.00,,2013-03-08 07:41:00,
2013-03-08 00:52:00,20.0,17.0,-100.00,SSW,199,4.0,5.0,86,0.00,,,0.00,,2013-03-08 07:52:00,
2013-03-08 01:01:00,20.0,17.0,-100.00,SSW,199,4.0,5.0,86,0.00,,,0.00,,2013-03-08 08:01:00,
2013-03-08 01:11:00,20.0,17.0,-100.00,SSW,199,4.0,5.0,86,0.00,,,0.00,,2013-03-08 08:11:00,
2013-03-08 01:41:00,22.0,18.0,-100.00,WSW,242,1.0,3.0,85,0.01,,,0.01,,2013-03-08 08:41:00,
2013-03-08 01:52:00,22.0,18.0,-100.00,WSW,242,1.0,3.0,85,0.01,,,0.01,,2013-03-08 08:52:00,
2013-03-08 02:02:00,22.0,18.0,-100.00,WSW,242,1.0,3.0,85,0.01,,,0.01,,2013-03-08 09:02:00,
2013-03-08 02:11:00,22.0,18.0,-100.00,WSW,242,1.0,3.0,85,0.01,,,0.01,,2013-03-08 09:11:00,
2013-03-08 02:42:00,20.0,16.0,-100.00,SW,214,5.0,5.0,83,-99.99,,,0.00,,2013-03-08 09:42:00,
2013-03-08 02:52:00,20.0,16.0,-100.00,SW,214,5.0,5.0,83,-99.99,,,0.00,,2013-03-08 09:52:00,
2013-03-08 03:01:00,20.0,16.0,-100.00,SW,214,5.0,5.0,83,-99.99,,,0.00,,2013-03-08 10:01:00,
2013-03-08 03:11:00,20.0,16.0,-100.00,SW,214,5.0,5.0,83,-99.99,,,0.00,,2013-03-08 10:11:00,
2013-03-08 03:41:00,17.0,13.0,-100.00,SSE,162,2.0,3.0,85,0.00,,,0.00,,2013-03-08 10:41:00,
2013-03-08 03:52:00,17.0,13.0,-100.00,SSE,162,2.0,3.0,85,0.00,,,0.00,,2013-03-08 10:52:00,
2013-03-08 04:01:00,17.0,13.0,-100.00,SSE,162,2.0,3.0,85,0.00,,,0.00,,2013-03-08 11:01:00,
2013-03-08 04:11:00,17.0,13.0,-100.00,SSE,162,2.0,3.0,85,0.00,,,0.00,,2013-03-08 11:11:00,
2013-03-08 04:41:00,18.0,15.0,-100.00,West,264,3.0,4.0,89,0.00,,,0.00,,2013-03-08 11:41:00,
2013-03-08 04:52:00,18.0,15.0,-100.00,West,264,3.0,4.0,89,0.00,,,0.00,,2013-03-08 11:52:00,
2013-03-08 05:01:00,18.0,15.0,-100.00,West,264,3.0,4.0,89,0.00,,,0.00,,2013-03-08 12:01:00,
2013-03-08 05:11:00,18.0,15.0,-100.00,West,264,3.0,4.0,89,0.00,,,0.00,,2013-03-08 12:11:00,
2013-03-08 05:42:00,15.0,12.0,-100.00,WNW,297,1.0,2.0,88,0.00,,,0.00,,2013-03-08 12:42:00,
2013-03-08 05:52:00,15.0,12.0,-100.00,WNW,297,1.0,2.0,88,0.00,,,0.00,,2013-03-08 12:52:00,
2013-03-08 06:01:00,15.0,12.0,-100.00,WNW,297,1.0,2.0,88,0.00,,,0.00,,2013-03-08 13:01:00,
2013-03-08 06:11:00,15.0,12.0,-100.00,WNW,297,1.0,2.0,88,0.00,,,0.00,,2013-03-08 13:11:00,
2013-03-08 06:42:00,15.0,12.0,-100.00,East,85,1.0,2.0,86,0.00,,,0.00,,2013-03-08 13:42:00,
2013-03-08 06:52:00,15.0,12.0,-100.00,East,85,1.0,2.0,86,0.00,,,0.00,,2013-03-08 13:52:00,
2013-03-08 07:02:00,15.0,12.0,-100.00,East,85,1.0,2.0,86,0.00,,,0.00,,2013-03-08 14:02:00,
2013-03-08 07:11:00,15.0,12.0,-100.00,East,85,1.0,2.0,86,0.00,,,0.00,,2013-03-08 14:11:00,
2013-03-08 07:42:00,15.0,12.0,-100.00,South,190,2.0,4.0,87,0.00,,,0.00,,2013-03-08 14:42:00,
2013-03-08 07:52:00,15.0,12.0,-100.00,South,190,2.0,4.0,87,0.00,,,0.00,,2013-03-08 14:52:00,
2013-03-08 08:02:00,15.0,12.0,-100.00,South,190,2.0,4.0,87,0.00,,,0.00,,2013-03-08 15:02:00,
2013-03-08 08:11:00,15.0,12.0,-100.00,South,190,2.0,4.0,87,0.00,,,0.00,,2013-03-08 15:11:00,
2013-03-08 08:42:00,20.0,15.0,-100.00,SSW,198,6.0,8.0,81,0.00,,,-99.99,,2013-03-08 15:42:00,
2013-03-08 08:53:00,20.0,15.0,-100.00,SSW,198,6.0,8.0,81,0.00,,,-99.99,,2013-03-08 15:53:00,
2013-03-08 09:01:00,20.0,15.0,-100.00,SSW,198,6.0,8.0,81,0.00,,,-99.99,,2013-03-08 16:01:00,
2013-03-08 09:11:00,20.0,15.0,-100.00,SSW,198,6.0,8.0,81,0.00,,,-99.99,,2013-03-08 16:11:00,
2013-03-08 09:42:00,27.0,18.0,-100.00,SSW,194,3.0,5.0,70,0.00,,,0.00,,2013-03-08 16:42:00,
2013-03-08 09:52:00,27.0,18.0,-100.00,SSW,194,3.0,5.0,70,0.00,,,0.00,,2013-03-08 16:52:00,
2013-03-08 10:02:00,27.0,18.0,-100.00,SSW,194,3.0,5.0,70,0.00,,,0.00,,2013-03-08 17:02:00,
2013-03-08 10:11:00,27.0,18.0,-100.00,SSW,194,3.0,5.0,70,0.00,,,0.00,,2013-03-08 17:11:00,
2013-03-08 10:41:00,30.0,19.0,-100.00,North,353,3.0,6.0,65,0.00,,,0.00,,2013-03-08 17:41:00,
2013-03-08 10:52:00,30.0,19.0,-100.00,North,353,3.0,6.0,65,0.00,,,0.00,,2013-03-08 17:52:00,
2013-03-08 11:01:00,30.0,19.0,-100.00,North,353,3.0,6.0,65,0.00,,,0.00,,2013-03-08 18:01:00,
2013-03-08 11:11:00,30.0,19.0,-100.00,North,353,3.0,6.0,65,0.00,,,0.00,,2013-03-08 18:11:00,
2013-03-08 11:42:00,33.0,19.0,-100.00,NNE,18,5.0,9.0,56,0.00,,,0.00,,2013-03-08 18:42:00,
2013-03-08 11:52:00,33.0,19.0,-100.00,NNE,18,5.0,9.0,56,0.00,,,0.00,,2013-03-08 18:52:00,
2013-03-08 12:01:00,33.0,19.0,-100.00,NNE,18,5.0,9.0,56,0.00,,,0.00,,2013-03-08 19:01:00,
2013-03-08 12:11:00,33.0,19.0,-100.00,NNE,18,5.0,9.0,56,0.00,,,0.00,,2013-03-08 19:11:00,
2013-03-08 12:41:00,36.0,18.0,-100.00,NNE,29,5.0,11.0,48,0.00,,,0.00,,2013-03-08 19:41:00,
2013-03-08 12:52:00,36.0,18.0,-100.00,NNE,29,5.0,11.0,48,0.00,,,0.00,,2013-03-08 19:52:00,
2013-03-08 13:01:00,36.0,18.0,-100.00,NNE,29,5.0,11.0,48,0.00,,,0.00,,2013-03-08 20:01:00,
2013-03-08 13:11:00,36.0,18.0,-100.00,NNE,29,5.0,11.0,48,0.00,,,0.00,,2013-03-08 20:11:00,
2013-03-08 13:42:00,38.0,19.0,-100.00,NE,44,6.0,12.0,45,0.00,,,0.00,,2013-03-08 20:42:00,
2013-03-08 13:53:00,38.0,19.0,-100.00,NE,44,6.0,12.0,45,0.00,,,0.00,,2013-03-08 20:53:00,
2013-03-08 14:01:00,38.0,19.0,-100.00,NE,44,6.0,12.0,45,0.00,,,0.00,,2013-03-08 21:01:00,
2013-03-08 14:11:00,38.0,19.0,-100.00,NE,44,6.0,12.0,45,0.00,,,0.00,,2013-03-08 21:11:00,
2013-03-08 14:42:00,41.0,20.0,-100.00,NNE,30,7.0,13.0,42,0.00,,,0.00,,2013-03-08 21:42:00,
2013-03-08 14:52:00,41.0,20.0,-100.00,NNE,30,7.0,13.0,42,0.00,,,0.00,,2013-03-08 21:52:00,
2013-03-08 15:01:00,41.0,20.0,-100.00,NNE,30,7.0,13.0,42,0.00,,,0.00,,2013-03-08 22:01:00,
2013-03-08 15:11:00,41.0,20.0,-100.00,NNE,30,7.0,13.0,42,0.00,,,0.00,,2013-03-08 22:11:00,
2013-03-08 15:42:00,43.0,12.0,-100.00,NNE,17,10.0,18.0,28,0.00,,,0.00,,2013-03-08 22:42:00,
2013-03-08 15:52:00,43.0,12.0,-100.00,NNE,17,10.0,18.0,28,0.00,,,0.00,,2013-03-08 22:52:00,
2013-03-08 16:01:00,43.0,12.0,-100.00,NNE,17,10.0,18.0,28,0.00,,,0.00,,2013-03-08 23:01:00,
2013-03-08 16:11:00,43.0,12.0,-100.00,NNE,17,10.0,18.0,28,0.00,,,0.00,,2013-03-08 23:11:00,
2013-03-08 16:42:00,43.0,0.0,-100.00,North,10,12.0,19.0,16,0.00,,,0.00,,2013-03-08 23:42:00,
2013-03-08 16:53:00,43.0,0.0,-100.00,North,10,12.0,19.0,16,0.00,,,0.00,,2013-03-08 23:53:00,
2013-03-08 17:42:00,42.0,13.0,-100.00,NNE,28,11.0,15.0,30,0.00,,,0.00,,2013-03-09 00:42:00,
2013-03-08 17:52:00,42.0,13.0,-100.00,NNE,28,11.0,15.0,30,0.00,,,0.00,,2013-03-09 00:52:00,
2013-03-08 18:01:00,42.0,13.0,-100.00,NNE,28,11.0,15.0,30,0.00,,,0.00,,2013-03-09 01:01:00,
2013-03-08 18:12:00,42.0,13.0,-100.00,NNE,28,11.0,15.0,30,0.00,,,0.00,,2013-03-09 01:12:00,
2013-03-08 20:41:00,32.0,10.0,-100.00,NNE,12,7.0,11.0,39,0.00,,,0.00,,2013-03-09 03:41:00,
2013-03-08 20:52:00,32.0,10.0,-100.00,NNE,12,7.0,11.0,39,0.00,,,0.00,,2013-03-09 03:52:00,
2013-03-08 21:01:00,32.0,10.0,-100.00,NNE,12,7.0,11.0,39,0.00,,,0.00,,2013-03-09 04:01:00,
2013-03-08 21:11:00,32.0,10.0,-100.00,NNE,12,7.0,11.0,39,0.00,,,0.00,,2013-03-09 04:11:00,
2013-03-08 21:41:00,28.0,12.0,-100.00,NNE,30,6.0,9.0,49,0.00,,,0.00,,2013-03-09 04:41:00,
2013-03-08 21:52:00,28.0,12.0,-100.00,NNE,30,6.0,9.0,49,0.00,,,0.00,,2013-03-09 04:52:00,
2013-03-08 22:01:00,28.0,12.0,-100.00,NNE,30,6.0,9.0,49,0.00,,,0.00,,2013-03-09 05:01:00,
2013-03-08 22:11:00,28.0,12.0,-100.00,NNE,30,6.0,9.0,49,0.00,,,0.00,,2013-03-09 05:11:00,
2013-03-08 22:42:00,27.0,13.0,-100.00,NE,55,7.0,10.0,54,0.00,,,0.00,,2013-03-09 05:42:00,
2013-03-08 22:53:00,27.0,13.0,-100.00,NE,55,7.0,10.0,54,0.00,,,0.00,,2013-03-09 05:53:00,
2013-03-08 23:01:00,27.0,13.0,-100.00,NE,55,7.0,10.0,54,0.00,,,0.00,,2013-03-09 06:01:00,
2013-03-08 23:11:00,27.0,13.0,-100.00,NE,55,7.0,10.0,54,0.00,,,0.00,,2013-03-09 06:11:00,
2013-03-08 23:42:00,24.0,15.0,-100.00,ENE,72,3.0,10.0,67,0.00,,,0.00,,2013-03-09 06:42:00,
2013-03-08 23:52:00,24.0,15.0,-100.00,ENE,72,3.0,10.0,67,0.00,,,0.00,,2013-03-09 06:52:00,